Lexington Weather

Lexington, Massachusetts, USA

34°F
4/16/2021 9:49am 
  • Lexington Conditions: Snow, Mist, Overcast
  • Temperature: 33.8°F / 1.0°CColder 2.3°F than last hour.
  • Dew Point: 32.5°FDecreased 2.0°Fsince last hour.
  • Relative Humidity: 95%Increased 1.0% since last hour.
  • Wind: Calm, 10-min avg: Calm, gust: None
  • Barometer: 29.50 in Steady
  • Visibility: ½ mile
  • Snow Today: 0.3 in
  •   

Regional Weather Roundup
for Boston / Norton, MA

        
000
ASUS41 KBOX 140005
RWRBOX

REGIONAL WEATHER ROUNDUP
NATIONAL WEATHER SERVICE BOSTON/NORTON MA
800 PM EDT TUE APR 13 2021

NOTE:  "FAIR" INDICATES FEW OR NO CLOUDS BELOW 12,000 FEET WITH NO 
SIGNIFICANT WEATHER AND/OR OBSTRUCTIONS TO VISIBILITY.

MAZALL-140100-
EASTERN MASSACHUSETTS
  
CITY           SKY/WX    TMP DP  RH WIND       PRES   REMARKS
BOSTON         PTCLDY    53  38  56 S3        30.04R                  
6HR MIN TEMP:  51; 6HR MAX TEMP:  57;                                

BEVERLY        NOT AVBL                                               
LAWRENCE       MOCLDY    57  39  51 CALM      30.04R                  
BEDFORD        CLEAR     55  40  56 CALM      30.02R                  
BLUE HILL        N/A     50  38  63 E5        30.02R                  
NORWOOD        CLEAR     51  40  65 CALM      30.03S                  
MARSHFIELD     CLEAR     46  41  81 CALM      30.03R                  
PLYMOUTH       CLEAR     46  39  76 CALM      30.03R                  
TAUNTON        CLEAR     48  40  73 CALM      30.03R                  
NEW BEDFORD    CLEAR     50  39  66 CALM      30.03R                  
$$

MAZALL-140100-
CAPE COD AND THE ISLANDS
  
CITY           SKY/WX    TMP DP  RH WIND       PRES   REMARKS
FALMOUTH       CLEAR     46  39  76 N5        30.03R                  
HYANNIS        CLEAR     46  41  82 NE3       30.02R                  
CHATHAM        CLEAR     46  39  76 NE7       30.04R                  
PROVINCETOWN   CLEAR     44  41  89 NE3       30.05R                  
NANTUCKET      CLEAR     44  39  82 N9        30.02R                  
MARTHAS VNYRD  CLEAR     48  39  71 N5        30.03R                  
$$
 
MAZALL-140100-
CENTRAL AND WESTERN MASSACHUSETTS
  
CITY           SKY/WX    TMP DP  RH WIND       PRES   REMARKS
WORCESTER      CLEAR     56  39  53 SE8       30.04R                  
6HR MIN TEMP:  56; 6HR MAX TEMP:  62;                                

FITCHBURG      CLEAR     57  41  55 S7        30.03R                  
ORANGE         CLOUDY    60  42  51 SE5       30.03R                  
SPRINGFIELD    CLOUDY    61  41  47 SE5       30.01R                  
WESTFIELD      CLOUDY    60  43  53 CALM      30.02R                  
NORTH ADAMS    CLOUDY    58  45  62 CALM      30.01S                  
PITTSFIELD     CLOUDY    58  42  55 W3        30.01R                  
$$
 
RIZALL-140100-
RHODE ISLAND
  
CITY           SKY/WX    TMP DP  RH WIND       PRES   REMARKS
PROVIDENCE     PTCLDY    55  39  54 N3        30.04S                  
6HR MIN TEMP:  53; 6HR MAX TEMP:  61;                                

NEWPORT        CLEAR     51  39  63 CALM      30.04R                  
BLOCK ISLAND   CLEAR     45  39  79 E5        30.06R                  
SMITHFIELD     CLEAR     51  40  65 CALM      30.05R                  
WESTERLY       CLEAR     46  41  82 CALM      30.06R                  
$$
 
CTZALL-140100-
CONNECTICUT
  
CITY           SKY/WX    TMP DP  RH WIND       PRES   REMARKS
BRADLEY INTL   MOCLDY    63  41  44 E3        30.02R                  
6HR MIN TEMP:  62; 6HR MAX TEMP:  68;                                

HARTFORD       CLOUDY    59  40  49 S8        30.03R                  
BRIDGEPORT     CLEAR     50  40  68 SE8       30.04R                  
DANBURY        CLEAR     58  42  55 CALM      30.03R                  
GROTON         CLEAR     45  40  82 S5        30.06R                  
NEW HAVEN      CLEAR     51  43  74 SE6       30.05R                  
CHESTER        FAIR      50  39  66 CALM      30.06R                  
MERIDEN        CLOUDY    54  40  59 S6        30.05R                  
WILLIMANTIC    CLEAR     59  40  49 CALM      30.04R                  
OXFORD         CLOUDY    54  43  66 S9        30.04R                  
$$

MEZ002-015-021-024-NHZ003-005-008-011-012-014-VTZ005-008-140100-
NORTHERN NEW ENGLAND
  
CITY           SKY/WX    TMP DP  RH WIND       PRES   REMARKS
PORTLAND ME    MOCLDY    49  41  74 CALM      30.02R                  
6HR MIN TEMP:  49; 6HR MAX TEMP:  64;                                

BANGOR ME      CLEAR     53  36  52 E14       30.03R                  
CONCORD NH     CLOUDY    58  40  51 SE3       30.01R                  
MANCHESTER NH  MOCLDY    59  40  49 S5        30.00R                  
NASHUA NH      CLEAR     54  42  64 CALM      30.03R                  
PORTSMOUTH NH  MOCLDY    51  36  55 SE7       30.03R                  
JAFFREY NH     CLOUDY    54  44  69 CALM      30.02S                  
KEENE NH       CLOUDY    59  44  57 CALM      30.02R                  
BURLINGTON VT  CLOUDY    63  40  42 NW7       30.01R                  
MT. WASHINGTON NOT AVBL                                               
$$

NYZ052-076-140100-
EASTERN NEW YORK
  
CITY           SKY/WX    TMP DP  RH WIND       PRES   REMARKS
ALBANY         MOCLDY    57  42  57 SW5       30.01S                  
6HR MIN TEMP:  57; 6HR MAX TEMP:  65;                                

NEW YORK CITY  PTCLDY    62  39  42 N3        30.02R                  
6HR MIN TEMP:  60; 6HR MAX TEMP:  65;                                

$$
 
ANZALL-140100-
MARINE OBSERVATIONS
  
STATION/POSITION TIME  TEMP    WIND        PRES    VSBY  WAVE
                       AIR SEA DIR/SP/G                  HT/PER
                 (UTC) (F)     (DEG/KT/KT) (MB)    (MI)  (FT/S)
BOSTON BUOY      2350   45 45  230/  4/  6 1017.3R         5/ 8
BUZZARDS BAY     2300           50/  8/  9 1017.7R
NANTUCKET SOUND  2350      47                N/A           2/ 5
MASS BAY-STELLWA 2304   49     210/  4/  4 1015.8F  1 7/8  5/ 8
ISLE OF SHOALS   2300   48     220/  8/  8 1016.2R
S OF BLOCK IS    2356      44                N/A           4/ 7
$$

......................KEY.........................
  SKY/WX - SKY CONDITION/PRESENT WEATHER
  TMP    - TEMPERATURE IN FAHRENHEIT
  DWPT   - DEWPOINT IN FAHRENHEIT
  RH     - RELATIVE HUMIDITY IN PERCENT
  WIND   - DIRECTION AND SPEED IN MPH
  PRES   - MEAN SEA LEVEL PRESSURE IN INCHES OF HG
  WCI    - WIND CHILL INDEX
  VSB    - VISIBILITY IN MILES
  HX     - HEAT INDEX
  TC     - TEMPERATURE IN CELSIUS
  VRB    - VARIABLE WIND DIRECTION
  N/A    - NOT AVAILABLE
  
      

Other recent Regional Weather Roundups

Fri Apr 16, 9:04am

Fri Apr 16, 8:04am

Fri Apr 16, 7:04am

Fri Apr 16, 6:04am

Fri Apr 16, 5:04am

Fri Apr 16, 4:04am

Fri Apr 16, 3:04am

Fri Apr 16, 2:04am

Fri Apr 16, 1:04am

Fri Apr 16, 12:04am

Thu Apr 15, 11:05pm

Thu Apr 15, 10:04pm

Thu Apr 15, 9:04pm

Thu Apr 15, 8:04pm

Thu Apr 15, 7:05pm

Thu Apr 15, 6:04pm

Thu Apr 15, 5:05pm

Thu Apr 15, 4:04pm

Thu Apr 15, 3:05pm

Thu Apr 15, 2:04pm

Thu Apr 15, 1:05pm

Thu Apr 15, 12:04pm

Thu Apr 15, 11:04am

Thu Apr 15, 10:05am

Thu Apr 15, 9:04am

Thu Apr 15, 8:04am

Thu Apr 15, 7:04am

Thu Apr 15, 6:04am

Thu Apr 15, 5:04am

Thu Apr 15, 4:04am

Thu Apr 15, 3:04am

Thu Apr 15, 2:04am

Thu Apr 15, 1:04am

Thu Apr 15, 12:04am

Wed Apr 14, 11:04pm

Wed Apr 14, 10:04pm

Wed Apr 14, 9:04pm

Wed Apr 14, 8:04pm

Wed Apr 14, 7:04pm

Wed Apr 14, 6:04pm

Wed Apr 14, 5:05pm

Wed Apr 14, 4:04pm

Wed Apr 14, 3:05pm

Wed Apr 14, 2:04pm

Wed Apr 14, 1:05pm

Wed Apr 14, 12:04pm

Wed Apr 14, 11:04am

Wed Apr 14, 10:04am

Wed Apr 14, 9:04am

Wed Apr 14, 8:04am

Wed Apr 14, 7:04am

Wed Apr 14, 6:04am

Wed Apr 14, 5:04am

Wed Apr 14, 4:04am

Wed Apr 14, 3:04am

Wed Apr 14, 2:04am

Wed Apr 14, 1:04am

Wed Apr 14, 12:04am

Tue Apr 13, 11:04pm

Tue Apr 13, 10:05pm

Tue Apr 13, 9:05pm

Tue Apr 13, 7:04pm

Tue Apr 13, 6:04pm

Tue Apr 13, 5:05pm

Tue Apr 13, 4:04pm

Tue Apr 13, 3:04pm

Tue Apr 13, 2:05pm

Tue Apr 13, 1:04pm

Tue Apr 13, 12:05pm

Tue Apr 13, 11:05am

Tue Apr 13, 10:04am

Tue Apr 13, 9:04am

Tue Apr 13, 8:04am

Tue Apr 13, 7:04am

Tue Apr 13, 6:04am

Tue Apr 13, 5:04am

Tue Apr 13, 4:04am

Tue Apr 13, 3:04am

Tue Apr 13, 2:04am

Tue Apr 13, 1:04am

Tue Apr 13, 12:05am

Mon Apr 12, 11:04pm

Mon Apr 12, 10:04pm

Mon Apr 12, 9:04pm

Mon Apr 12, 8:04pm

Mon Apr 12, 7:05pm

Mon Apr 12, 6:04pm

Mon Apr 12, 5:04pm

Mon Apr 12, 4:04pm

Mon Apr 12, 3:05pm

Mon Apr 12, 2:04pm

Mon Apr 12, 1:05pm

Mon Apr 12, 12:04pm

Mon Apr 12, 11:04am

Mon Apr 12, 10:04am

Mon Apr 12, 9:04am

Mon Apr 12, 8:04am

Mon Apr 12, 7:04am

Mon Apr 12, 6:04am

Mon Apr 12, 5:04am

Mon Apr 12, 4:04am

Mon Apr 12, 3:04am

Mon Apr 12, 2:04am

Mon Apr 12, 1:05am

Mon Apr 12, 12:04am

Sun Apr 11, 11:04pm

Sun Apr 11, 10:04pm

Sun Apr 11, 9:04pm

Sun Apr 11, 8:04pm

Sun Apr 11, 7:04pm

Sun Apr 11, 6:05pm

Sun Apr 11, 5:05pm

Sun Apr 11, 4:04pm

Sun Apr 11, 3:05pm

Sun Apr 11, 2:05pm

Sun Apr 11, 1:05pm

Sun Apr 11, 12:04pm

Sun Apr 11, 11:05am

Sun Apr 11, 10:05am

Sun Apr 11, 9:04am

Sun Apr 11, 8:04am

Sun Apr 11, 7:04am

Sun Apr 11, 6:04am

Sun Apr 11, 5:04am

Sun Apr 11, 4:04am

Sun Apr 11, 3:04am

Sun Apr 11, 2:04am

Sun Apr 11, 1:05am

Sun Apr 11, 12:04am

Sat Apr 10, 11:05pm

Sat Apr 10, 10:04pm

Sat Apr 10, 9:04pm

Sat Apr 10, 8:04pm

Sat Apr 10, 7:05pm

Sat Apr 10, 6:04pm

Sat Apr 10, 5:04pm

Sat Apr 10, 4:04pm

Sat Apr 10, 3:04pm

Sat Apr 10, 2:05pm

Sat Apr 10, 1:04pm

Sat Apr 10, 12:04pm

Sat Apr 10, 11:04am

Sat Apr 10, 10:04am

Sat Apr 10, 9:04am

Sat Apr 10, 8:04am

Sat Apr 10, 7:04am

Sat Apr 10, 6:04am

Sat Apr 10, 5:04am

Sat Apr 10, 4:04am

Sat Apr 10, 3:04am

Sat Apr 10, 2:04am

Sat Apr 10, 1:05am

Sat Apr 10, 12:04am

Fri Apr 9, 11:04pm

Fri Apr 9, 10:05pm

Fri Apr 9, 9:04pm

Fri Apr 9, 8:05pm

Fri Apr 9, 7:05pm

Fri Apr 9, 6:04pm

Fri Apr 9, 5:04pm

Fri Apr 9, 4:05pm

Fri Apr 9, 3:05pm

Fri Apr 9, 2:04pm

Fri Apr 9, 1:04pm

Fri Apr 9, 12:04pm

Fri Apr 9, 11:05am

Fri Apr 9, 10:04am

Meta data:

ID: 93b2a67e-c436-46b0-a3f4-c17a4745cfae
Link: https://api.weather.gov/products/93b2a67e-c436-46b0-a3f4-c17a4745cfae